DW3921 Weather Reports


time (UTC)temp
C
wind
direction
speed
KPH
gust
KPH
rain 1hr
cm
rain 24hr
cm
rain mn
cm
humidity
%
barometer
mb
20260509054007 21 22 8.0 16.1 0.00 0.05 0.05 58 991.1
20260509053006 21 22 8.0 16.1 0.00 0.05 0.05 58 991.1
20260509052006 21 22 8.0 16.1 0.00 0.05 0.05 58 991.1
20260509051008 21 22 8.0 16.1 0.00 0.05 0.05 58 991.1
20260509050006 21 22 8.0 16.1 0.00 0.05 0.05 58 991.1
20260509045005 21 22 8.0 16.1 0.00 0.05 0.05 58 991.1
20260509044006 21 22 8.0 16.1 0.00 0.05 0.05 58 991.1
20260509043006 21 22 8.0 16.1 0.00 0.05 0.05 58 991.1
20260509041007 21 22 8.0 16.1 0.00 0.05 0.05 58 991.1
20260509040006 21 22 8.0 16.1 0.00 0.05 0.05 58 991.1
20260509035006 21 22 8.0 16.1 0.00 0.05 0.05 58 991.1
20260509033007 21 22 8.0 16.1 0.00 0.05 0.05 58 991.1
20260509031006 21 22 8.0 16.1 0.00 0.05 0.05 58 991.1
20260509030006 21 22 8.0 16.1 0.00 0.05 0.05 58 991.1
20260509025006 21 22 8.0 16.1 0.00 0.05 0.05 58 991.1
20260509023008 21 22 8.0 16.1 0.00 0.05 0.05 58 991.1
20260509022006 22 25 3.2 19.3 0.00 0.05 0.05 55 990.9
20260509021006 22 41 4.8 22.5 0.00 0.05 0.05 55 991.0
20260509020007 22 331 6.4 27.4 0.00 0.05 0.05 54 991.1
20260509014006 22 29 16.1 25.7 0.00 0.05 0.05 54 991.3
20260509013007 22 15 6.4 16.1 0.00 0.05 0.05 55 991.3
20260509012006 22 27 6.4 22.5 0.00 0.05 0.05 54 991.1
20260509011006 22 32 6.4 19.3 0.00 0.05 0.05 55 991.5
20260509010009 22 30 9.7 27.4 0.00 0.05 0.05 55 991.5
20260509005008 22 34 9.7 27.4 0.00 0.05 0.05 57 991.2
20260509003007 22 33 8.0 16.1 0.00 0.05 0.05 56 992.0
20260509002005 22 33 9.7 27.4 0.00 0.05 0.05 56 992.8
20260509001006 22 40 6.4 27.4 0.00 0.05 0.05 58 993.0
20260509000006 21 32 6.4 22.5 0.00 0.05 0.05 57 993.3
20260508234006 21 27 6.4 22.5 0.00 0.05 0.05 59 993.8
20260508233007 21 33 8.0 25.7 0.00 0.05 0.05 59 994.0
20260508231006 21 20 9.7 22.5 0.00 0.05 0.05 60 994.1
20260508230006 21 35 9.7 25.7 0.00 0.05 0.05 60 994.1
20260508224006 20 27 9.7 22.5 0.00 0.05 0.05 62 994.5
20260508223006 21 30 6.4 22.5 0.00 0.05 0.05 61 995.0
20260508222005 21 29 8.0 27.4 0.00 0.05 0.05 61 995.0
20260508221006 20 37 6.4 25.7 0.00 0.05 0.05 63 994.8
20260508220006 20 40 8.0 25.7 0.00 0.05 0.05 62 995.1
20260508214006 20 27 3.2 14.5 0.00 0.05 0.05 66 995.4
20260508213007 20 32 6.4 14.5 0.00 0.05 0.05 67 995.7
20260508212005 19 34 6.4 11.3 0.00 0.05 0.05 69 995.7
20260508211005 19 21 8.0 19.3 0.00 0.05 0.05 69 995.7
20260508210006 18 25 4.8 11.3 0.00 0.05 0.05 72 996.1
20260508205005 18 37 3.2 14.5 0.00 0.05 0.05 73 996.4
20260508202006 16 0 0.0 4.8 0.00 0.05 0.05 79 997.2
20260508201006 15 323 1.6 4.8 0.00 0.05 0.05 83 997.5
20260508200006 15 0 0.0 0.0 0.00 0.05 0.05 85 998.0
20260508195005 13 0 0.0 0.0 0.00 0.05 0.05 90 998.1
20260508193006 13 0 0.0 0.0 0.00 0.05 0.05 91 998.1
20260508191006 13 0 0.0 0.0 0.00 0.05 0.05 89 998.2
20260508185005 14 0 0.0 3.2 0.00 0.05 0.05 86 997.9
20260508184006 15 0 0.0 3.2 0.00 0.05 0.05 82 997.9
20260508183007 17 34 1.6 16.1 0.00 0.05 0.05 76 997.5
20260508182006 16 42 4.8 11.3 0.00 0.05 0.05 76 997.6
20260508181006 16 24 1.6 19.3 0.00 0.05 0.05 77 997.3
20260508180007 16 30 8.0 30.6 0.00 0.05 0.05 76 996.9
20260508173006 16 0 0.0 4.8 0.03 0.05 0.05 94 996.5
20260508172008 16 45 1.6 4.8 0.05 0.05 0.05 94 996.3
20260508171007 16 0 0.0 4.8 0.05 0.05 0.05 94 996.3
20260508170006 16 0 0.0 4.8 0.05 0.05 0.05 94 996.3
20260508165007 17 1 1.6 4.8 0.03 0.03 0.03 92 995.9
20260508164006 17 0 0.0 3.2 0.03 0.03 0.03 90 996.3
20260508163007 18 31 1.6 11.3 0.03 0.03 0.03 87 996.1
20260508161006 19 28 8.0 30.6 0.00 0.00 0.00 78 995.6
20260508160006 19 30 6.4 22.5 0.00 0.00 0.00 77 995.5
20260508154007 18 31 4.8 22.5 0.00 0.00 0.00 77 995.1
20260508153007 18 36 3.2 11.3 0.00 0.00 0.00 77 995.4
20260508151007 18 36 6.4 22.5 0.00 0.00 0.00 75 995.7
20260508144005 19 28 6.4 30.6 0.00 0.00 0.00 73 996.3
20260508143006 18 30 12.9 22.5 0.00 0.00 0.00 74 996.9
20260508142005 18 29 4.8 19.3 0.00 0.00 0.00 74 997.0
20260508141006 18 39 8.0 32.2 0.00 0.00 0.00 74 997.1
20260508140006 18 40 8.0 25.7 0.00 0.00 0.00 75 996.9
20260508135005 19 37 8.0 27.4 0.00 0.00 0.00 75 997.2
20260508134006 18 24 12.9 19.3 0.00 0.00 0.00 75 997.2
20260508133006 18 36 8.0 16.1 0.00 0.00 0.00 76 997.7
20260508132005 18 30 4.8 19.3 0.00 0.00 0.00 76 997.4
20260508131007 18 31 4.8 19.3 0.00 0.00 0.00 76 998.1
20260508130006 18 15 8.0 30.6 0.00 0.00 0.00 77 998.0
20260508125006 18 38 16.1 32.2 0.00 0.00 0.00 77 997.4
20260508121006 18 27 17.7 38.6 0.00 0.00 0.00 76 997.9
20260508115006 18 41 12.9 32.2 0.00 0.00 0.00 78 998.1
20260508114006 18 27 16.1 38.6 0.00 0.00 0.00 78 998.3
20260508113008 18 40 12.9 32.2 0.00 0.00 0.00 78 998.3
20260508112005 18 28 17.7 38.6 0.00 0.00 0.00 77 998.3
20260508111006 18 44 22.5 45.1 0.00 0.00 0.00 77 998.7
20260508110007 18 40 16.1 30.6 0.00 0.00 0.00 77 999.0
20260508105006 18 52 12.9 27.4 0.00 0.00 0.00 77 999.1
20260508104005 18 35 16.1 37.0 0.00 0.00 0.00 76 998.9
20260508103007 18 33 9.7 32.2 0.00 0.00 0.00 77 999.8
20260508101007 18 35 8.0 30.6 0.00 0.00 0.00 76 999.8
20260508100006 18 33 12.9 25.7 0.00 0.00 0.00 75 999.9
20260508094005 18 39 8.0 27.4 0.00 0.00 0.00 74 999.9
20260508093006 18 29 6.4 37.0 0.00 0.00 0.00 73 1000.2
20260508091006 18 17 19.3 37.0 0.00 0.00 0.00 72 1000.1
20260508090007 18 30 16.1 30.6 0.00 0.00 0.00 73 1000.0
20260508085006 18 45 16.1 38.6 0.00 0.00 0.00 72 1000.4
20260508083008 19 31 12.9 48.3 0.00 0.00 0.00 71 1000.1
20260508082005 19 33 12.9 30.6 0.00 0.00 0.00 70 1000.4
20260508081005 18 39 6.4 22.5 0.00 0.00 0.00 73 1000.5
20260508080007 18 38 12.9 25.7 0.00 0.00 0.00 73 1000.6
20260508075006 18 31 12.9 25.7 0.00 0.00 0.00 73 1000.8
20260508074006 18 36 9.7 25.7 0.00 0.00 0.00 73 1000.8
20260508073007 18 37 12.9 27.4 0.00 0.00 0.00 73 1001.4
20260508072006 18 27 9.7 32.2 0.00 0.00 0.00 72 1001.8
20260508071006 18 26 19.3 32.2 0.00 0.00 0.00 72 1002.2
20260508070006 18 34 9.7 27.4 0.00 0.00 0.00 73 1002.2
20260508065006 18 35 9.7 30.6 0.00 0.00 0.00 73 1002.7
20260508064008 18 15 16.1 32.2 0.00 0.00 0.00 72 1002.4
20260508063006 18 25 12.9 27.4 0.00 0.00 0.00 73 1002.7
20260508062006 18 15 12.9 30.6 0.00 0.00 0.00 73 1002.6
20260508061007 18 25 9.7 27.4 0.00 0.00 0.00 72 1003.0
20260508060007 18 29 8.0 25.7 0.00 0.00 0.00 72 1003.5